[[{"header":{"parameterUnit":"m.s-1","parameterCategory":1,"la1":30.2991,"la2":30.254,"lo1":-89.0895,"lo2":-89.0444,"dy":0.0017,"dx":0.0017,"nx":28,"ny":28,"refTime":"2024-12-19T09:00:00:Z","depth":0,"parameterNumber":2,"parameterNumberName":"U-component_of_WINDS"},"data":[0,0,0,0,0,0,0,0,0,0,0,0,0,0,0,0,0,0,0,0,0,0,0,0,0,0,0,0,0,0,0,0,0,0,0,0,0,0,0,0,0,0,0,0,0,0,0,0,0,0,0,0,0,0,0,0,0,0,-1.0152,-1.0152,0,-1.0243,-1.0244,-1.0245,-1.0224,-1.0222,-1.0221,-1.0219,-1.0314,-1.0318,-1.0322,0,0,0,0,0,0,0,0,0,0,0,0,0,-0.9959,-0.9962,-1.0151,-1.0153,-1.0154,-1.0243,-1.0244,-1.0245,-1.0224,-1.0222,-1.022,-1.0218,-1.0312,-1.0317,-1.0322,0,0,0,0,0,0,0,0,0,0,0,0,0,-1.0045,-0.9963,-1.0151,-1.0154,-1.0155,-1.0242,-1.0244,-1.0245,-1.0225,-1.0222,-1.022,-1.0217,-1.0311,-1.0317,-1.0323,-1.0413,0,0,-1.0342,-1.0344,0,0,0,0,0,0,0,0,-1.0041,-1.0053,-1.0152,-1.0154,-1.0155,-1.0219,-1.0211,-1.0302,-1.0225,-1.0198,-1.0219,-1.0216,-1.0284,-1.0293,-1.0316,-1.0418,-1.0422,-1.0342,-1.0346,-1.0349,-1.0351,0,0,0,0,0,0,0,-1.0035,-1.0049,-1.0188,-1.0154,-1.0156,-1.0151,-1.016,-1.0228,-1.0255,-1.0201,-1.0199,-1.021,-1.0285,-1.031,-1.0318,-1.0423,-1.0342,-1.0348,-1.0351,-1.0354,-1.0603,-1.0605,0,0,0,0,0,0,-1.0027,-1.0044,-1.0185,-1.019,-1.009,-1.0156,-1.0167,-1.0201,-1.0254,-1.026,-1.0212,-1.0209,-1.03,-1.031,-1.0321,-1.043,-1.0349,-1.0355,-1.0358,-1.06,-1.0603,-1.0606,0,0,0,0,0,0,-1.0023,-1.004,-1.0181,-1.0117,-1.0134,-1.0162,-1.0201,-1.0205,-1.0229,-1.0263,-1.0268,-1.0233,-1.0299,-1.0312,-1.039,-1.0433,-1.0357,-1.0363,-1.0596,-1.0601,-1.0605,-1.0649,0,0,0,0,0,0,-1.0018,-1.0039,-1.0074,-1.0118,-1.0138,-1.0249,-1.0204,-1.0208,-1.024,-1.0236,-1.0284,-1.0289,-1.0298,-1.0381,-1.0396,-1.044,-1.0368,-1.0593,-1.0598,-1.0604,-1.0644,-1.0655,-1.0663,0,0,0,0,0,-1.0011,-1.0083,-1.0076,-1.0093,-1.0182,-1.0252,-1.0263,-1.0272,-1.0244,-1.0279,-1.03,-1.0287,-1.0425,-1.0389,-1.0406,-1.0453,-1.059,-1.0597,-1.0603,-1.064,-1.0652,-1.0663,0,0,0,0,0,0,-1.0045,-1.0089,-1.0081,-1.017,-1.0207,-1.0248,-1.0293,-1.0285,-1.0331,-1.0326,-1.0334,-1.0345,-1.0425,-1.0446,-1.0405,-1.0542,-1.0504,-1.0514,-1.0526,-1.0538,-1.0548,-1.0541,-1.0373,0,0,0,0,0,-1.0062,-1.0115,-1.0151,-1.0225,-1.0244,-1.0265,-1.0296,-1.0299,-1.0338,-1.0354,-1.0381,-1.0419,-1.0471,-1.0506,-1.0555,-1.0646,-1.0656,-1.0686,-1.0696,-1.0704,-1.0713,-1.0762,-1.0776,-1.0628,-1.0628,-1.0628,0,0,-1.0099,-1.013,-1.0163,-1.0233,-1.0262,-1.0316,-1.0279,-1.0338,-1.0379,-1.0363,-1.0438,-1.0459,-1.0503,-1.0587,-1.0626,-1.0608,-1.0756,-1.0712,-1.0718,-1.0723,-1.077,-1.0784,-1.0797,-1.0632,-1.0631,-1.0631,0,0,-1.0195,-1.0223,-1.0288,-1.0318,-1.0362,-1.0375,-1.0391,-1.0433,-1.0446,-1.0521,-1.051,-1.0558,-1.0647,-1.0678,-1.0706,-1.0811,-1.0801,-1.0826,-1.0878,-1.0926,-1.0937,-1.0948,-1.0985,-1.0999,-1.0835,-1.0835,-1.0835,0,-1.0236,-1.0317,-1.0323,-1.0383,-1.0414,-1.04,-1.0466,-1.0494,-1.0553,-1.0575,-1.0553,-1.0664,-1.0692,-1.0784,-1.0809,-1.0831,-1.0849,-1.0822,-1.0935,-1.0945,-1.0955,-1.0991,-1.1005,-1.0838,-1.0838,-1.0838,-1.0837,0,-1.0365,-1.0422,-1.0469,-1.0525,-1.056,-1.0623,-1.0638,-1.0673,-1.0672,-1.0687,-1.0764,-1.0797,-1.0852,-1.0874,-1.0874,-1.0965,-1.0952,-1.0933,-1.0895,-1.0972,-1.1006,-1.102,-1.0842,-1.0841,-1.0841,-1.084,0,0,-1.0487,-1.0544,-1.0561,-1.0586,-1.0632,-1.0676,-1.0737,-1.0791,-1.0821,-1.0861,-1.0913,-1.0988,-1.0969,-1.1,-1.1003,-1.1045,-1.1126,-1.102,-1.1021,-1.1039,-1.1228,-1.1243,-1.1259,-1.1118,-1.1121,-1.1123,-1.1224,0,-1.0588,-1.0696,-1.0702,-1.08,-1.0852,-1.0839,-1.0892,-1.0926,-1.0941,-1.0987,-1.1004,-1.1057,-1.1028,-1.1047,-1.1087,-1.1107,-1.1164,-1.11,-1.1167,-1.1169,-1.1158,-1.1277,-1.1294,-1.1388,-1.1238,-1.124,-1.1241,0,-1.072,-1.0763,-1.0867,-1.0905,-1.0927,-1.0975,-1.1024,-1.1068,-1.1105,-1.1113,-1.1147,-1.1143,-1.1206,-1.1164,-1.1249,-1.1206,-1.1233,-1.1246,-1.125,-1.1258,-1.1211,-1.1289,-1.1418,-1.1433,-1.1262,-1.1261,-1.1259,0,-1.08,-1.0883,-1.0956,-1.0977,-1.1023,-1.1057,-1.1078,-1.1113,-1.1144,-1.1187,-1.1207,-1.1256,-1.1284,-1.1321,-1.1331,-1.1299,-1.1416,-1.1375,-1.1425,-1.1425,-1.1452,-1.145,-1.1589,-1.1467,-1.1467,-1.1467,-1.1467,0,-1.0912,-1.0976,-1.0992,-1.1037,-1.1107,-1.1112,-1.1182,-1.12,-1.1231,-1.1279,-1.127,-1.1315,-1.1324,-1.1371,-1.1378,-1.1448,-1.146,-1.1468,-1.147,-1.147,-1.1469,-1.1489,-1.1483,-1.1471,-1.147,-1.1469,-1.1468,0,-1.1014,-1.1027,-1.1105,-1.1141,-1.1152,-1.1202,-1.1233,-1.1276,-1.1289,-1.1349,-1.1364,-1.1384,-1.1438,-1.1451,-1.1516,-1.152,-1.1603,-1.1598,-1.159,-1.159,-1.164,-1.1635,-1.1797,-1.1818,-1.1682,-1.1683,-1.1684,0,-1.1086,-1.1134,-1.1175,-1.1206,-1.1228,-1.1278,-1.131,-1.1316,-1.1349,-1.1395,-1.1432,-1.1485,-1.1528,-1.1614,-1.1635,-1.1684,-1.168,-1.1733,-1.1688,-1.1686,-1.1682,-1.1679,-1.1684,-1.1743,-1.1744,-1.1746,-1.1747,0,-1.1212,-1.1215,-1.1261,-1.1309,-1.1346,-1.1384,-1.1421,-1.1446,-1.1457,-1.1495,-1.155,-1.1583,-1.1648,-1.17,-1.1749,-1.177,-1.176,-1.176,-1.1774,-1.1776,-1.177,-1.1774,-1.1615,-1.1757,-1.1756,-1.1755,-1.1755,-1.1754,-1.1301,-1.1343,-1.1378,-1.1429,-1.1457,-1.149,-1.1532,-1.1549,-1.1595,-1.1648,-1.1648,-1.1708,-1.1743,-1.1807,-1.1831,-1.1877,-1.1861,-1.1882,-1.1887,-1.1892,-1.1897,-1.1761,-1.1886,-1.1886,-1.1886,-1.1885,-1.1885,0,-1.1427,-1.1448,-1.1495,-1.1545,-1.1585,-1.1571,-1.161,-1.1644,-1.1697,-1.173,-1.1771,-1.1834,-1.1884,-1.1908,-1.1957,-1.199,-1.1987,-1.2003,-1.2001,-1.2006,-1.1909,-1.1892,-1.2005,-1.2005,-1.2005,-1.2004,-1.2004,-1.2004,-1.1498,-1.1568,-1.1575,-1.1659,-1.168,-1.1738,-1.1761,-1.1792,-1.1818,-1.1888,-1.193,-1.1944,-1.1973,-1.2024,-1.207,-1.2075,-1.2094,-1.2113,-1.2116,-1.2025,-1.2013,-1.2002,-1.1986,-1.2116,-1.2117,-1.221,-1.2211,-1.2211]},{"header":{"parameterUnit":"m.s-1","parameterCategory":1,"la1":30.2991,"la2":30.254,"lo1":-89.0895,"lo2":-89.0444,"dy":0.0017,"dx":0.0017,"nx":28,"ny":28,"refTime":"2024-12-19T09:00:00:Z","depth":0,"parameterNumber":3,"parameterNumberName":"V-component_of_WINDS"},"data":[0,0,0,0,0,0,0,0,0,0,0,0,0,0,0,0,0,0,0,0,0,0,0,0,0,0,0,0,0,0,0,0,0,0,0,0,0,0,0,0,0,0,0,0,0,0,0,0,0,0,0,0,0,0,0,0,0,0,-7.4702,-7.4704,0,-7.486,-7.4862,-7.4864,-7.4783,-7.4779,-7.4775,-7.4771,-7.4927,-7.4934,-7.4942,0,0,0,0,0,0,0,0,0,0,0,0,0,-7.4325,-7.4333,-7.4702,-7.4704,-7.4706,-7.486,-7.4862,-7.4864,-7.4784,-7.4779,-7.4774,-7.4769,-7.4924,-7.4934,-7.4943,0,0,0,0,0,0,0,0,0,0,0,0,0,-7.4487,-7.4335,-7.4702,-7.4685,-7.4685,-7.4859,-7.4862,-7.4865,-7.4785,-7.4779,-7.4773,-7.4767,-7.4921,-7.4933,-7.4944,-7.5143,0,0,-7.4981,-7.4986,0,0,0,0,0,0,0,0,-7.4478,-7.45,-7.4686,-7.4687,-7.4687,-7.4796,-7.4786,-7.4958,-7.4787,-7.4747,-7.4771,-7.4764,-7.4888,-7.4902,-7.4945,-7.515,-7.5156,-7.4982,-7.4989,-7.4995,-7.4998,0,0,0,0,0,0,0,-7.4466,-7.4493,-7.4764,-7.4688,-7.4689,-7.4667,-7.4683,-7.4818,-7.485,-7.475,-7.4745,-7.4765,-7.4887,-7.4934,-7.4948,-7.5159,-7.4982,-7.4992,-7.5,-7.5005,-7.5531,-7.5538,0,0,0,0,0,0,-7.4457,-7.4484,-7.4759,-7.4769,-7.4565,-7.4679,-7.4697,-7.4767,-7.4848,-7.4855,-7.477,-7.476,-7.4916,-7.4934,-7.4953,-7.5189,-7.4994,-7.5006,-7.5013,-7.5525,-7.5533,-7.554,0,0,0,0,0,0,-7.4449,-7.4482,-7.4753,-7.4626,-7.4658,-7.4692,-7.4771,-7.4773,-7.482,-7.4863,-7.4868,-7.4812,-7.4912,-7.4936,-7.5096,-7.5194,-7.5011,-7.5022,-7.5517,-7.5527,-7.5537,-7.5664,0,0,0,0,0,0,-7.4439,-7.448,-7.4557,-7.4628,-7.4666,-7.4896,-7.4778,-7.4781,-7.4842,-7.4831,-7.4905,-7.4911,-7.4909,-7.5079,-7.5108,-7.5207,-7.5031,-7.5508,-7.5521,-7.5533,-7.5651,-7.5678,-7.57,0,0,0,0,0,-7.4426,-7.4586,-7.4562,-7.4595,-7.4763,-7.4902,-7.4923,-7.492,-7.485,-7.4927,-7.4954,-7.4908,-7.5178,-7.5096,-7.5128,-7.5232,-7.5502,-7.5518,-7.5532,-7.5641,-7.5672,-7.5699,0,0,0,0,0,0,-7.4525,-7.4595,-7.4569,-7.4758,-7.4825,-7.4888,-7.4985,-7.4954,-7.504,-7.5026,-7.5016,-7.5033,-7.5199,-7.5231,-7.5138,-7.5427,-7.5329,-7.5352,-7.54,-7.5431,-7.5455,-7.5443,-7.5041,0,0,0,0,0,-7.4569,-7.4677,-7.4732,-7.4893,-7.4928,-7.4951,-7.5011,-7.5003,-7.5071,-7.5098,-7.5137,-7.5203,-7.5303,-7.5368,-7.5462,-7.5655,-7.5669,-7.5743,-7.5767,-7.5787,-7.5806,-7.5909,-7.5942,-7.5591,-7.559,-7.559,0,0,-7.466,-7.4712,-7.4781,-7.4914,-7.4965,-7.5076,-7.4975,-7.5097,-7.5178,-7.5116,-7.5269,-7.53,-7.5373,-7.555,-7.563,-7.5582,-7.5906,-7.5806,-7.5822,-7.583,-7.5928,-7.5961,-7.5991,-7.5601,-7.5599,-7.5597,0,0,-7.4884,-7.4935,-7.5074,-7.5127,-7.5206,-7.522,-7.5253,-7.5322,-7.5341,-7.5495,-7.545,-7.5545,-7.5717,-7.577,-7.582,-7.6062,-7.6023,-7.6093,-7.6219,-7.632,-7.6347,-7.6372,-7.6457,-7.6488,-7.6112,-7.6113,-7.6113,0,-7.4987,-7.5154,-7.5149,-7.5274,-7.5333,-7.5284,-7.5423,-7.5474,-7.5579,-7.562,-7.5565,-7.5779,-7.5824,-7.6012,-7.6072,-7.6114,-7.615,-7.6085,-7.6344,-7.6369,-7.6391,-7.6472,-7.6504,-7.6121,-7.612,-7.6119,-7.6118,0,-7.5277,-7.5393,-7.5495,-7.56,-7.567,-7.5802,-7.5814,-7.5886,-7.5871,-7.589,-7.6046,-7.6099,-7.6202,-7.6246,-7.6232,-7.6432,-7.6399,-7.6345,-7.6246,-7.6433,-7.6509,-7.654,-7.6132,-7.6129,-7.6127,-7.6125,0,0,-7.5568,-7.5667,-7.5705,-7.5751,-7.5833,-7.5922,-7.605,-7.6153,-7.6213,-7.6287,-7.6392,-7.6539,-7.6489,-7.6545,-7.6536,-7.6624,-7.6811,-7.6558,-7.656,-7.6603,-7.7032,-7.7073,-7.7109,-7.6785,-7.6791,-7.6796,-7.7026,0,-7.5796,-7.6023,-7.6022,-7.623,-7.6336,-7.629,-7.6401,-7.6463,-7.6483,-7.6574,-7.6596,-7.67,-7.6626,-7.666,-7.6745,-7.6771,-7.6897,-7.6754,-7.6881,-7.6886,-7.6865,-7.7149,-7.7192,-7.7407,-7.7056,-7.7061,-7.7064,0,-7.6094,-7.6178,-7.6398,-7.6464,-7.6509,-7.6609,-7.6702,-7.6791,-7.6858,-7.6866,-7.693,-7.6907,-7.7034,-7.6932,-7.7106,-7.7009,-7.7061,-7.7081,-7.7089,-7.7101,-7.6986,-7.7167,-7.7475,-7.7507,-7.7111,-7.7107,-7.7104,0,-7.6283,-7.6451,-7.6605,-7.6645,-7.6726,-7.6798,-7.6834,-7.6896,-7.6957,-7.7038,-7.7077,-7.7171,-7.7222,-7.7294,-7.7296,-7.7222,-7.7471,-7.737,-7.748,-7.748,-7.7535,-7.7531,-7.7855,-7.757,-7.7569,-7.7568,-7.7568,0,-7.6538,-7.6674,-7.669,-7.6785,-7.6935,-7.693,-7.7078,-7.7108,-7.7163,-7.726,-7.7225,-7.7316,-7.7314,-7.7406,-7.7408,-7.7551,-7.7575,-7.7584,-7.7582,-7.7587,-7.7586,-7.762,-7.7605,-7.7577,-7.7575,-7.7573,-7.7572,0,-7.6774,-7.6791,-7.6955,-7.7018,-7.7037,-7.7145,-7.7198,-7.7286,-7.7303,-7.7427,-7.7455,-7.7482,-7.7588,-7.7598,-7.7721,-7.7722,-7.7895,-7.7878,-7.7873,-7.787,-7.7979,-7.7969,-7.8336,-7.8384,-7.8068,-7.8071,-7.8073,0,-7.6936,-7.704,-7.7115,-7.7178,-7.7219,-7.7322,-7.7385,-7.7383,-7.7449,-7.7534,-7.7611,-7.7715,-7.7797,-7.7969,-7.7998,-7.8091,-7.8076,-7.8198,-7.8089,-7.809,-7.8076,-7.807,-7.8079,-7.8219,-7.8222,-7.8225,-7.8228,0,-7.7221,-7.7224,-7.7317,-7.7413,-7.7489,-7.7564,-7.7633,-7.7687,-7.7693,-7.7769,-7.7879,-7.7943,-7.8069,-7.8172,-7.8263,-7.8297,-7.8264,-7.8262,-7.8292,-7.8297,-7.829,-7.8294,-7.793,-7.8253,-7.8251,-7.8249,-7.8247,-7.8246,-7.7424,-7.7514,-7.758,-7.7684,-7.7737,-7.7803,-7.7889,-7.7917,-7.8009,-7.8113,-7.8106,-7.8226,-7.8289,-7.8408,-7.845,-7.8542,-7.8501,-7.8545,-7.8556,-7.8567,-7.8578,-7.8276,-7.8559,-7.8558,-7.8558,-7.8557,-7.8557,0,-7.7706,-7.7747,-7.7843,-7.7942,-7.8023,-7.7986,-7.8061,-7.813,-7.8238,-7.83,-7.8383,-7.8507,-7.8606,-7.8642,-7.8738,-7.8805,-7.8792,-7.883,-7.8825,-7.8833,-7.861,-7.8574,-7.8839,-7.8839,-7.8839,-7.8839,-7.8839,-7.8839,-7.7863,-7.8012,-7.8023,-7.8196,-7.8235,-7.8355,-7.84,-7.846,-7.851,-7.8651,-7.8734,-7.8757,-7.8809,-7.8908,-7.8996,-7.9003,-7.904,-7.9085,-7.9086,-7.8877,-7.8849,-7.8822,-7.8787,-7.9093,-7.9093,-7.9301,-7.9303,-7.9304]}]]